When you browse on this site, cookies collect data to enhance your experience and personalize the content and advertising you see.
Visit our Privacy Policy to learn more. By continuing to use the site, you agree to this use of cookies and data.
  • In Schweiz
  • Länderverzeichnis
  • Für 7 Tage
  • Wassertemperatur
  • Wetterkarte
  • Widgets
  • user-avatar
    Anmelden

    Stündliche Wetter Newcastle

    Heute, 15 September, Sonntag

    Zeit Temperatur Niederschläge Wind Luftdruck Luftfeuchtigkeit
    00:00 +11°C° 0 mm 1 m/S 766 mmHg 90%
    01:00 +9°C° 0 mm 2 m/S 766 mmHg 92%
    02:00 +9°C° 0 mm 2 m/S 766 mmHg 93%
    03:00 +9°C° 0 mm 2 m/S 766 mmHg 94%
    04:00 +8°C° 0 mm 2 m/S 766 mmHg 94%
    05:00 +9°C° 0 mm 2 m/S 766 mmHg 92%
    06:00 +9°C° 0 mm 3 m/S 766 mmHg 89%
    07:00 +10°C° 0 mm 3 m/S 767 mmHg 86%
    08:00 +13°C° 0 mm 3 m/S 766 mmHg 74%
    09:00 +17°C° 0 mm 3 m/S 766 mmHg 61%
    10:00 +21°C° 0 mm 2 m/S 766 mmHg 46%
    11:00 +23°C° 0 mm 2 m/S 765 mmHg 40%
    12:00 +25°C° 0 mm 2 m/S 765 mmHg 34%
    13:00 +27°C° 0 mm 2 m/S 764 mmHg 27%
    14:00 +27°C° 0 mm 3 m/S 764 mmHg 30%
    15:00 +26°C° 0 mm 3 m/S 763 mmHg 32%
    16:00 +26°C° 0 mm 3 m/S 763 mmHg 34%
    17:00 +22°C° 0 mm 3 m/S 763 mmHg 42%
    18:00 +20°C° 0 mm 3 m/S 764 mmHg 49%
    19:00 +17°C° 0 mm 4 m/S 764 mmHg 57%
    20:00 +16°C° 0 mm 3 m/S 764 mmHg 56%
    21:00 +16°C° 0 mm 3 m/S 764 mmHg 56%
    22:00 +14°C° 0 mm 3 m/S 764 mmHg 55%
    23:00 +14°C° 0 mm 3 m/S 764 mmHg 54%

    Morgen, 16 September, Montag

    Zeit Temperatur Niederschläge Wind Luftdruck Luftfeuchtigkeit
    00:00 +13°C° 0 mm 3 m/S 763 mmHg 53%
    01:00 +13°C° 0 mm 4 m/S 763 mmHg 53%
    02:00 +13°C° 0 mm 4 m/S 762 mmHg 51%
    03:00 +13°C° 0 mm 4 m/S 762 mmHg 49%
    04:00 +13°C° 0 mm 5 m/S 762 mmHg 47%
    05:00 +13°C° 0 mm 5 m/S 762 mmHg 46%
    06:00 +13°C° 0 mm 5 m/S 762 mmHg 46%
    07:00 +14°C° 0 mm 5 m/S 762 mmHg 45%
    08:00 +17°C° 0 mm 5 m/S 762 mmHg 40%
    09:00 +21°C° 0 mm 5 m/S 762 mmHg 35%
    10:00 +25°C° 0 mm 5 m/S 762 mmHg 30%
    11:00 +26°C° 0 mm 5 m/S 761 mmHg 28%
    12:00 +27°C° 0 mm 5 m/S 760 mmHg 26%
    13:00 +28°C° 0 mm 5 m/S 759 mmHg 24%
    14:00 +28°C° 0 mm 4 m/S 759 mmHg 26%
    15:00 +28°C° 0 mm 4 m/S 759 mmHg 28%
    16:00 +27°C° 0 mm 4 m/S 759 mmHg 31%
    17:00 +25°C° 0 mm 5 m/S 760 mmHg 44%
    18:00 +22°C° 0 mm 6 m/S 760 mmHg 57%
    19:00 +18°C° 0 mm 7 m/S 761 mmHg 69%
    20:00 +18°C° 0 mm 7 m/S 761 mmHg 75%
    21:00 +17°C° 0 mm 7 m/S 762 mmHg 80%
    22:00 +16°C° 0 mm 7 m/S 762 mmHg 85%
    23:00 +15°C° 0.4 mm 7 m/S 763 mmHg 87%

    übermorgen, 17 September, Dienstag

    Zeit Temperatur Niederschläge Wind Luftdruck Luftfeuchtigkeit
    00:00 +13°C° 0.4 mm 8 m/S 763 mmHg 89%
    01:00 +12°C° 0.4 mm 9 m/S 763 mmHg 91%
    02:00 +12°C° 0.5 mm 8 m/S 763 mmHg 91%
    03:00 +11°C° 0.5 mm 8 m/S 763 mmHg 92%
    04:00 +11°C° 0.5 mm 7 m/S 763 mmHg 93%
    05:00 +11°C° 2.1 mm 6 m/S 764 mmHg 94%
    06:00 +11°C° 2.1 mm 6 m/S 764 mmHg 95%
    07:00 +12°C° 2.1 mm 5 m/S 765 mmHg 96%
    08:00 +12°C° 2.2 mm 5 m/S 765 mmHg 96%
    09:00 +12°C° 2.2 mm 5 m/S 765 mmHg 96%
    10:00 +12°C° 2.2 mm 5 m/S 765 mmHg 96%
    11:00 +11°C° 3 mm 6 m/S 765 mmHg 95%
    12:00 +11°C° 3 mm 6 m/S 765 mmHg 95%
    13:00 +13°C° 3 mm 6 m/S 765 mmHg 95%
    14:00 +11°C° 2.2 mm 7 m/S 765 mmHg 94%
    15:00 +11°C° 2.2 mm 8 m/S 766 mmHg 93%
    16:00 +11°C° 2.2 mm 8 m/S 766 mmHg 92%
    17:00 +11°C° 0.9 mm 8 m/S 766 mmHg 92%
    18:00 +11°C° 0.9 mm 8 m/S 767 mmHg 91%
    19:00 +11°C° 0.9 mm 7 m/S 767 mmHg 90%
    20:00 +11°C° 0.2 mm 7 m/S 768 mmHg 89%
    21:00 +11°C° 0.2 mm 7 m/S 768 mmHg 87%
    22:00 +11°C° 0.2 mm 7 m/S 768 mmHg 86%
    23:00 +11°C° 0.1 mm 7 m/S 768 mmHg 86%

    18 September, Mittwoch

    Zeit Temperatur Niederschläge Wind Luftdruck Luftfeuchtigkeit
    00:00 +11°C° 0.1 mm 6 m/S 768 mmHg 86%
    01:00 +10°C° 0.1 mm 6 m/S 768 mmHg 87%
    02:00 +10°C° 0.1 mm 6 m/S 768 mmHg 87%
    03:00 +10°C° 0.1 mm 6 m/S 768 mmHg 88%
    04:00 +10°C° 0.1 mm 5 m/S 768 mmHg 88%
    05:00 +12°C° 0.1 mm 5 m/S 768 mmHg 88%
    06:00 +12°C° 0.1 mm 5 m/S 769 mmHg 88%
    07:00 +12°C° 0.1 mm 5 m/S 769 mmHg 88%
    08:00 +13°C° 0.3 mm 5 m/S 769 mmHg 87%
    09:00 +14°C° 0.3 mm 6 m/S 769 mmHg 86%
    10:00 +15°C° 0.3 mm 6 m/S 769 mmHg 85%
    11:00 +15°C° 0.2 mm 6 m/S 769 mmHg 83%
    12:00 +16°C° 0.2 mm 6 m/S 768 mmHg 80%
    13:00 +16°C° 0.2 mm 6 m/S 768 mmHg 78%
    14:00 +16°C° 0.2 mm 6 m/S 767 mmHg 81%
    15:00 +15°C° 0.2 mm 5 m/S 767 mmHg 84%
    16:00 +15°C° 0.2 mm 5 m/S 767 mmHg 87%
    17:00 +15°C° 0.4 mm 5 m/S 768 mmHg 89%
    18:00 +15°C° 0.4 mm 4 m/S 768 mmHg 90%
    19:00 +14°C° 0.4 mm 4 m/S 768 mmHg 92%
    20:00 +14°C° 0.7 mm 3 m/S 768 mmHg 93%
    21:00 +14°C° 0.7 mm 3 m/S 768 mmHg 93%
    22:00 +14°C° 0.7 mm 3 m/S 768 mmHg 94%
    23:00 +14°C° 0.6 mm 3 m/S 768 mmHg 94%

    19 September, Donnerstag

    Zeit Temperatur Niederschläge Wind Luftdruck Luftfeuchtigkeit
    00:00 +14°C° 0.6 mm 3 m/S 768 mmHg 95%
    01:00 +15°C° 0.6 mm 2 m/S 767 mmHg 95%
    02:00 +14°C° 0.5 mm 2 m/S 767 mmHg 96%
    03:00 +14°C° 0.5 mm 2 m/S 767 mmHg 96%
    04:00 +14°C° 0.5 mm 1 m/S 767 mmHg 96%
    05:00 +14°C° 0.1 mm 2 m/S 767 mmHg 96%
    06:00 +14°C° 0.1 mm 2 m/S 767 mmHg 96%
    07:00 +13°C° 0.1 mm 3 m/S 767 mmHg 95%
    08:00 +17°C° 0 mm 2 m/S 767 mmHg 86%
    09:00 +19°C° 0 mm 2 m/S 767 mmHg 78%
    10:00 +21°C° 0 mm 2 m/S 767 mmHg 69%
    11:00 +21°C° 0 mm 2 m/S 766 mmHg 69%
    12:00 +21°C° 0 mm 3 m/S 766 mmHg 70%
    13:00 +21°C° 0 mm 3 m/S 765 mmHg 70%
    14:00 +21°C° 0 mm 3 m/S 765 mmHg 72%
    15:00 +20°C° 0 mm 3 m/S 765 mmHg 73%
    16:00 +20°C° 0 mm 3 m/S 765 mmHg 75%
    17:00 +19°C° 0 mm 2 m/S 765 mmHg 82%
    18:00 +17°C° 0 mm 2 m/S 765 mmHg 89%
    19:00 +16°C° 0 mm 2 m/S 766 mmHg 96%
    20:00 +14°C° 0 mm 3 m/S 766 mmHg 96%
    21:00 +14°C° 0 mm 3 m/S 766 mmHg 96%
    22:00 +14°C° 0 mm 3 m/S 766 mmHg 97%
    23:00 +14°C° 0 mm 3 m/S 766 mmHg 97%

    20 September, Freitag

    Zeit Temperatur Niederschläge Wind Luftdruck Luftfeuchtigkeit
    00:00 +14°C° 0 mm 3 m/S 766 mmHg 97%
    01:00 +14°C° 0 mm 3 m/S 765 mmHg 97%
    02:00 +13°C° 0 mm 3 m/S 765 mmHg 97%
    03:00 +13°C° 0 mm 3 m/S 765 mmHg 97%
    04:00 +14°C° 0 mm 2 m/S 764 mmHg 97%
    05:00 +13°C° 0 mm 3 m/S 765 mmHg 96%
    06:00 +13°C° 0 mm 3 m/S 765 mmHg 95%
    07:00 +14°C° 0 mm 3 m/S 765 mmHg 93%
    08:00 +17°C° 0 mm 2 m/S 765 mmHg 83%
    09:00 +20°C° 0 mm 2 m/S 765 mmHg 72%
    10:00 +24°C° 0 mm 2 m/S 765 mmHg 62%
    11:00 +25°C° 0 mm 2 m/S 764 mmHg 57%
    12:00 +26°C° 0 mm 3 m/S 763 mmHg 53%
    13:00 +28°C° 0 mm 4 m/S 763 mmHg 48%
    14:00 +27°C° 0 mm 5 m/S 762 mmHg 51%
    15:00 +27°C° 0 mm 5 m/S 762 mmHg 53%
    16:00 +26°C° 0 mm 6 m/S 762 mmHg 56%
    17:00 +24°C° 0.1 mm 6 m/S 762 mmHg 62%
    18:00 +22°C° 0.1 mm 6 m/S 762 mmHg 69%
    19:00 +20°C° 0.1 mm 6 m/S 763 mmHg 75%
    20:00 +19°C° 0.3 mm 6 m/S 763 mmHg 80%
    21:00 +17°C° 0.3 mm 5 m/S 763 mmHg 84%
    22:00 +17°C° 0.3 mm 4 m/S 763 mmHg 88%
    23:00 +17°C° 0.4 mm 4 m/S 763 mmHg 90%
    Mehr zeigen